[Iaude] MPEC X11: 2023 WQ3 [a=1.75,e=0.29,i=35.5,H=21.3]

mpec at marsden.cfa.harvard.edu mpec at marsden.cfa.harvard.edu
Sun Dec 3 02:27:53 EST 2023


M.P.E.C. 2023-X11                              Issued 2023 December 3, 07:26 UT

     The Minor Planet Electronic Circulars contain information on unusual
         minor planets, routine data on comets and natural satellites,
         and occasional editorial announcements.  They are published
    on behalf of Division F of the International Astronomical Union by the
          Minor Planet Center, Smithsonian Astrophysical Observatory,
                          Cambridge, MA 02138, U.S.A.
			  
             Prepared using the Tamkin Foundation Computer Network

                              MPC at CFA.HARVARD.EDU
            URL https://www.minorplanetcenter.net/    ISSN 1523-6714

                                    2023 WQ3                                    


Observations:
     K23W03Q* C2023 11 18.49628905 07 28.224-14 38 43.71         21.90wXEX011F51
     K23W03Q  C2023 11 18.50752105 07 26.221-14 38 11.35         21.61wXEX011F51
     K23W03Q  C2023 11 18.51977805 07 24.039-14 37 35.75         21.96wXEX011F51
     K23W03Q  C2023 11 18.53201005 07 21.876-14 37 00.42         22.18wXEX011F51
     K23W03Q KC2023 11 21.42784 04 58 58.31 -12 12 13.8          22.0 GVEX011291
     K23W03Q KC2023 11 21.44160 04 58 55.79 -12 11 30.9          21.9 GVEX011291
     K23W03Q  C2023 11 22.50182104 55 48.041-11 15 54.96         21.55wXEX011F52
     K23W03Q  C2023 11 22.51281104 55 45.991-11 15 19.39         21.48wXEX011F52
     K23W03Q  C2023 11 22.52381904 55 43.978-11 14 44.60         21.60wXEX011F52
     K23W03Q  C2023 11 22.53479404 55 41.923-11 14 09.75         21.18wXEX011F52
     K23W03Q KC2023 12 03.26890 04 23 41.51 -01 01 03.5          21.1 RVEX011691
     K23W03Q KC2023 12 03.27852 04 23 39.79 -01 00 29.2          21.4 RVEX011691
     K23W03Q KC2023 12 03.28815 04 23 38.07 -00 59 55.3          21.1 RVEX011691

Observer details:
291 LPL/Spacewatch II.  Observer M. J. Brucker.  1.8-m f/2.7 reflector + CCD.
691 Steward Observatory, Kitt Peak-Spacewatch.  Observer T. H. Bressi.  0.9-m
    f/3 reflector + CCD.
F51 Pan-STARRS 1, Haleakala.  Observers J. Herman, T. Lowe, P. Minguez, A.
    Schultz, I. Smith.  Measurers K. Chambers, T. de Boer, J. Fairlamb, H.
    Gao, M. Huber, C.-C. Lin, E. Magnier, Y. Ramanjooloo, R. Wainscoat, R.
    Weryk.  1.8-m Ritchey-Chretien + CCD.
F52 Pan-STARRS 2, Haleakala.  Observers J. Herman, T. Lowe, P. Minguez, A.
    Schultz, I. Smith.  Measurers K. Chambers, T. de Boer, J. Fairlamb, H.
    Gao, M. Huber, C.-C. Lin, E. Magnier, Y. Ramanjooloo, R. Wainscoat, R.
    Weryk.  1.8-m Ritchey-Chretien + CCD.

Orbital elements:
2023 WQ3                                                 Earth MOID = 0.4908 AU
Epoch 2023 Sept. 13.0 TT = JDT 2460200.5                MPC                     
M   7.05662              (2000.0)            P               Q                  
n   0.42631990     Peri.  276.49012     +0.81610007     +0.09914371             
a   1.7484195      Node    79.00323     +0.18937403     +0.88490091             
e   0.2897897      Incl.   35.45003     -0.54600198     +0.45510538             
P   2.31           H   21.39          G   0.15           U   8                  
Residuals in seconds of arc
231118 F51  0.1+  0.0     231121 291  0.2-  0.0     231203 691  0.2-  0.0
231118 F51  0.0   0.1-    231122 F52  0.1+  0.2-    231203 691  0.0   0.1+
231118 F51  0.1-  0.1+    231122 F52  0.1-  0.3+    231203 691  0.2+  0.1-
231118 F51  0.0   0.0     231122 F52  0.2+  0.0
231121 291  0.0   0.0     231122 F52  0.2-  0.1-

Ephemeris:
2023 WQ3                 a,e,i = 1.75, 0.29, 35                  q = 1.2417
Date    TT    R. A. (2000) Decl.     Delta      r    Elong.  Phase     V
2023 11 03    05 44 20.5 -24 20 10   0.5651  1.3564   118.6    40.0    22.4
...
2023 11 18    05 08 52.7 -15 02 19   0.5043  1.4056   138.3    27.9    21.9
...
2023 11 26    04 45 19.6 -08 04 17   0.4932  1.4338   149.4    20.5    21.7
...
2023 12 02    04 27 23.5 -02 16 00   0.4989  1.4557   155.9    16.1    21.6
2023 12 03    04 24 28.3 -01 16 52   0.5011  1.4594   156.6    15.6    21.6
2023 12 04    04 21 35.1 -00 17 42   0.5037  1.4632   157.2    15.1    21.6
...
2023 12 10    04 05 13.5 +05 31 19   0.5272  1.4857   157.5    14.7    21.7
...
2023 12 18    03 46 58.9 +12 36 40   0.5784  1.5164   151.1    18.3    22.0
...
2024 01 02    03 26 22.6 +22 52 00   0.7233  1.5749   134.1    26.6    22.9

A. U. Tomatic                (C) Copyright 2023 MPC           M.P.E.C. 2023-X11





More information about the Iaude mailing list